JE4YIZ-13 Weather Reports


Display with metric or nautical units.
time (UTC)temp
F
wind
direction
speed
MPH
gust
MPH
rain 1hr
in
rain 24hr
in
rain mn
in
humidity
%
barometer
mb
20260503060109 62 127 0.0 4.0 1.69 3.66 0.73 89 999.4
20260503055055 62 226 1.0 4.0 1.61 3.19 0.65 89 999.2
20260503054626 62 179 1.0 5.0 1.61 2.91 0.58 88 999.2
20260503054136 62 115 2.0 5.0 1.42 2.68 0.54 88 999.4
20260503053557 62 110 1.0 3.0 1.34 2.60 0.52 88 999.3
20260503053105 62 133 0.0 5.0 1.26 2.52 0.50 88 999.1
20260503052615 62 122 2.0 5.0 1.18 2.32 0.46 88 999.3
20260503051614 62 58 1.0 7.0 1.18 2.05 0.41 88 999.3
20260503051057 62 93 2.0 7.0 1.26 2.05 0.41 88 999.6
20260503050603 61 112 2.0 4.0 1.30 2.05 0.41 87 999.6
20260503050113 61 53 2.0 4.0 1.26 1.97 0.39 87 999.6
20260503045615 61 85 2.0 4.0 1.14 1.77 0.35 87 999.9
20260503045124 61 329 1.0 4.0 0.94 1.54 0.31 86 1000.0
20260503044613 61 128 1.0 3.0 0.75 1.30 0.26 86 1000.1
20260503044116 61 143 0.0 4.0 0.79 1.26 0.25 86 1000.1
20260503043605 61 139 1.0 4.0 0.83 1.26 0.25 86 1000.0
20260503043052 61 116 1.0 7.0 0.83 1.26 0.25 86 1000.1
20260503042617 61 72 3.0 7.0 0.67 1.10 0.22 85 1000.2
20260503042059 61 91 2.0 3.0 0.55 0.94 0.19 85 1000.4
20260503041606 61 105 1.0 3.0 0.43 0.83 0.17 85 1000.3
20260503041133 61 123 1.0 4.0 0.43 0.79 0.16 85 1000.4
20260503040554 61 333 1.0 4.0 0.39 0.75 0.15 85 1000.5
20260503040052 61 187 1.0 2.0 0.35 0.71 0.14 85 1000.8
20260503035602 61 172 1.0 2.0 0.31 0.63 0.13 85 1000.8
20260503035106 61 266 0.0 4.0 0.28 0.59 0.12 84 1001.0
20260503034615 61 210 1.0 4.0 0.24 0.55 0.11 84 1001.1
20260503034057 61 160 1.0 4.0 0.16 0.47 0.09 84 1001.1
20260503033607 61 146 1.0 4.0 0.16 0.43 0.09 84 1001.1
20260503033115 61 123 1.0 7.0 0.16 0.43 0.09 84 1001.3
20260503032556 61 173 1.0 7.0 0.12 0.39 0.08 84 1001.3
20260503032106 62 165 0.0 6.0 0.12 0.39 0.08 84 1001.3
20260503031612 62 148 2.0 6.0 0.08 0.35 0.07 84 1001.4
20260503031055 62 130 1.0 7.0 0.08 0.35 0.07 84 1001.4
20260503030606 62 114 3.0 7.0 0.08 0.35 0.07 84 1001.7
20260503030115 62 129 1.0 6.0 0.08 0.35 0.07 84 1001.9
20260503025558 62 109 2.0 9.0 0.04 0.31 0.06 85 1002.0
20260503025108 62 119 2.0 9.0 0.04 0.31 0.06 85 1002.0
20260503024638 62 145 3.0 7.0 0.08 0.31 0.06 84 1002.1
20260503024100 62 335 2.0 11.0 0.08 0.31 0.06 83 1002.3
20260503023053 61 237 1.0 4.0 0.04 0.28 0.06 82 1002.6
20260503022602 61 221 1.0 6.0 0.04 0.28 0.06 82 1002.7
20260503022132 61 151 2.0 7.0 0.04 0.28 0.06 81 1002.8
20260503021554 61 292 2.0 7.0 0.04 0.28 0.06 82 1002.9
20260503021123 61 293 2.0 5.0 0.04 0.28 0.06 83 1003.0
20260503020631 61 138 0.0 6.0 0.04 0.28 0.06 83 1003.2
20260503020117 61 76 3.0 6.0 0.04 0.28 0.06 83 1003.3
20260503015559 61 146 1.0 5.0 0.04 0.28 0.06 83 1003.3
20260503015105 61 88 2.0 5.0 0.04 0.28 0.06 84 1003.4
20260503014605 61 127 0.0 7.0 0.00 0.24 0.05 85 1003.5
20260503014114 61 125 1.0 7.0 0.00 0.24 0.05 85 1003.8
20260503013552 61 158 1.0 8.0 0.00 0.24 0.05 85 1003.6
20260503013059 61 123 3.0 8.0 0.00 0.24 0.05 85 1003.8
20260503012608 61 195 2.0 7.0 0.00 0.24 0.05 85 1003.7
20260503012117 61 127 2.0 7.0 0.00 0.24 0.05 85 1004.0
20260503011556 61 128 2.0 6.0 0.00 0.24 0.05 84 1004.1
20260503011128 61 96 2.0 7.0 0.00 0.24 0.05 84 1004.2
20260503010616 61 103 2.0 8.0 0.00 0.24 0.05 84 1004.1
20260503010055 61 179 2.0 8.0 0.00 0.24 0.05 83 1004.3
20260503005626 60 101 3.0 7.0 0.00 0.24 0.05 82 1004.3
20260503005113 60 251 1.0 5.0 0.04 0.24 0.05 83 1004.4
20260503004555 60 197 1.0 5.0 0.04 0.24 0.05 84 1004.5
20260503004055 60 100 2.0 5.0 0.04 0.24 0.05 85 1004.6
20260503003601 60 131 1.0 3.0 0.04 0.24 0.05 85 1004.8
20260503003110 60 142 1.0 4.0 0.04 0.24 0.05 85 1004.8
20260503002552 60 173 2.0 4.0 0.04 0.24 0.05 85 1004.9
20260503002102 60 139 0.0 4.0 0.04 0.24 0.05 85 1005.0
20260503001611 60 222 2.0 5.0 0.04 0.24 0.05 85 1004.9
20260503001052 60 155 1.0 6.0 0.04 0.24 0.05 85 1004.9
20260503000602 60 125 2.0 6.0 0.04 0.24 0.05 85 1005.0
20260503000113 60 140 0.0 8.0 0.04 0.24 0.05 85 1005.1
20260502235618 60 196 2.0 8.0 0.04 0.24 0.05 85 1005.2
20260502235107 60 266 2.0 5.0 0.00 0.20 0.04 84 1005.4
20260502234633 60 96 1.0 3.0 0.00 0.20 0.04 84 1005.6
20260502234051 60 89 1.0 3.0 0.00 0.20 0.04 84 1005.7
20260502233613 60 158 1.0 2.0 0.00 0.20 0.04 84 1005.8
20260502233054 60 174 0.0 97.0 0.00 0.20 0.04 84 1005.7
20260502232604 60 174 1.0 97.0 0.00 0.20 0.04 84 1005.6
20260502232111 60 167 0.0 2.0 0.00 0.20 0.04 84 1005.7
20260502231554 60 149 0.0 1.0 0.00 0.20 0.04 85 1005.7
20260502231104 59 149 0.0 0.0 0.00 0.20 0.04 85 1005.6
20260502230614 59 176 0.0 4.0 0.00 0.20 0.04 84 1005.8
20260502230055 59 167 1.0 4.0 0.00 0.20 0.04 84 1005.9
20260502225603 60 164 1.0 1.0 0.08 0.20 0.04 84 1005.9
20260502225112 60 164 0.0 2.0 0.08 0.20 0.04 84 1005.9
20260502224555 60 163 1.0 2.0 0.08 0.20 0.04 84 1006.1
20260502224101 60 150 0.0 1.0 0.08 0.20 0.04 84 1006.3
20260502223610 60 150 0.0 1.0 0.08 0.20 0.04 84 1006.2
20260502223117 60 150 0.0 4.0 0.08 0.20 0.04 84 1006.3
20260502222558 60 66 2.0 4.0 0.12 0.20 0.04 84 1006.4
20260502222127 60 87 1.0 4.0 0.12 0.20 0.04 84 1006.5
20260502221635 60 72 2.0 4.0 0.16 0.20 0.04 85 1006.5
20260502221116 60 58 1.0 4.0 0.20 0.20 0.04 86 1006.7
20260502220602 60 340 2.0 4.0 0.20 0.20 0.04 86 1006.8
20260502220110 60 122 0.0 1.0 0.16 0.16 0.03 86 1007.0
20260502215551 60 123 0.0 1.0 0.12 0.12 0.02 85 1006.9
20260502215124 60 122 0.0 1.0 0.12 0.12 0.02 85 1006.9
20260502214612 60 122 1.0 1.0 0.12 0.12 0.02 85 1006.7
20260502214056 60 122 0.0 4.0 0.12 0.12 0.02 84 1006.9
20260502213606 60 100 2.0 4.0 0.12 0.12 0.02 84 1006.9
20260502213117 60 174 0.0 1.0 0.12 0.12 0.02 83 1007.0
20260502212558 60 142 0.0 1.0 0.08 0.08 0.02 83 1006.9
20260502212108 60 165 0.0 2.0 0.08 0.08 0.02 82 1006.8
20260502211552 61 178 0.0 3.0 0.04 0.04 0.01 82 1006.8
20260502211123 61 201 2.0 3.0 0.00 0.00 0.00 82 1006.7
20260502210611 61 141 1.0 1.0 0.00 0.00 0.00 81 1007.0
20260502210053 61 141 0.0 2.0 0.00 0.00 0.00 80 1007.2
20260502205614 61 141 1.0 2.0 0.00 0.00 0.00 79 1007.1
20260502205102 61 162 0.0 1.0 0.00 0.00 0.00 78 1007.3
20260502204608 61 162 0.0 1.0 0.00 0.00 0.00 77 1007.2
20260502204052 61 162 0.0 1.0 0.00 0.00 0.00 77 1007.2
20260502203603 62 162 0.0 0.0 0.00 0.00 0.00 77 1007.1
20260502203112 62 162 0.0 4.0 0.00 0.00 0.00 76 1007.1
20260502202615 62 166 3.0 4.0 0.00 0.00 0.00 76 1007.1
20260502202105 61 131 1.0 4.0 0.00 0.00 0.00 77 1007.0
20260502201614 61 131 2.0 4.0 0.00 0.00 0.00 78 1006.8
20260502201057 61 139 1.0 2.0 0.00 0.00 0.00 79 1006.5
20260502200603 61 145 0.0 4.0 0.00 0.00 0.00 79 1006.7
20260502200109 60 203 2.0 4.0 0.00 0.00 0.00 80 1006.6
20260502195551 60 184 0.0 2.0 0.00 0.00 0.00 81 1006.6
20260502195059 60 154 0.0 2.0 0.00 0.00 0.00 81 1006.7
20260502194607 60 185 1.0 2.0 0.00 0.00 0.00 81 1006.8
20260502194116 60 163 1.0 2.0 0.00 0.00 0.00 81 1007.0
20260502193617 60 159 1.0 1.0 0.00 0.00 0.00 81 1007.1
20260502193101 60 159 0.0 2.0 0.00 0.00 0.00 81 1007.2
20260502192611 60 159 0.0 2.0 0.00 0.00 0.00 81 1006.9
20260502192115 60 155 0.0 1.0 0.00 0.00 0.00 81 1007.4
20260502191604 60 155 0.0 1.0 0.00 0.00 0.00 81 1007.4
20260502191108 60 155 0.0 0.0 0.00 0.00 0.00 81 1007.3
20260502190552 60 155 0.0 0.0 0.00 0.00 0.00 80 1007.4
20260502190116 60 155 0.0 1.0 0.00 0.00 0.00 80 1007.1
20260502185606 60 155 0.0 1.0 0.00 0.00 0.00 80 1007.0
20260502185106 60 155 0.0 1.0 0.00 0.00 0.00 80 1007.3
20260502184613 60 155 0.0 1.0 0.00 0.00 0.00 80 1007.3
20260502184103 60 155 0.0 0.0 0.00 0.00 0.00 79 1007.5
20260502183614 60 155 0.0 0.0 0.00 0.00 0.00 79 1007.6
20260502183055 61 155 0.0 1.0 0.00 0.00 0.00 79 1007.7
20260502182605 61 155 0.0 1.0 0.00 0.00 0.00 78 1007.8
20260502182135 61 155 0.0 1.0 0.00 0.00 0.00 78 1007.8
20260502181557 61 133 0.0 1.0 0.00 0.00 0.00 78 1007.9
20260502181105 61 133 0.0 1.0 0.00 0.00 0.00 77 1007.9
20260502180616 61 133 0.0 1.0 0.00 0.00 0.00 77 1007.8
20260502170109 62 148 0.0 2.0 0.00 0.00 0.00 74 1007.8
20260502164135 63 129 1.0 4.0 0.00 0.00 0.00 72 1007.9
20260502163619 63 100 1.0 4.0 0.00 0.00 0.00 72 1008.0
20260502163106 63 104 2.0 5.0 0.00 0.00 0.00 71 1008.1
20260502162637 63 81 1.0 5.0 0.00 0.00 0.00 71 1008.1
20260502162058 62 110 1.0 4.0 0.00 0.00 0.00 72 1008.1
20260502161602 62 111 1.0 2.0 0.00 0.00 0.00 74 1008.2
20260502161147 62 136 1.0 1.0 0.00 0.00 0.00 74 1008.4
20260502160606 62 167 0.0 1.0 0.00 0.00 0.00 74 1008.3
20260502160114 62 174 0.0 1.0 0.00 0.00 0.00 75 1008.6
20260502152115 62 174 0.0 1.0 0.00 0.00 0.00 76 1009.0
20260502151559 62 181 0.0 1.0 0.00 0.00 0.00 76 1009.1
20260502151110 61 181 0.0 1.0 0.00 0.00 0.00 77 1009.2
20260502150608 62 181 0.0 1.0 0.00 0.00 0.00 77 1009.3
20260502150116 62 181 0.0 1.0 0.00 0.00 0.00 77 1009.4
20260502140115 63 181 0.0 2.0 0.00 0.00 0.00 77 1009.8
20260502130616 63 148 0.0 1.0 0.00 0.00 0.00 79 1010.5
20260502123559 63 96 0.0 3.0 0.00 0.00 0.00 78 1010.6
20260502123129 63 96 1.0 3.0 0.00 0.00 0.00 78 1010.6
20260502122609 63 101 0.0 2.0 0.00 0.00 0.00 78 1010.4
20260502122053 63 178 1.0 3.0 0.00 0.00 0.00 78 1010.4
20260502121603 63 174 1.0 3.0 0.00 0.00 0.00 78 1010.3
20260502121114 63 147 0.0 1.0 0.00 0.00 0.00 78 1010.3
20260502120600 63 130 0.0 1.0 0.00 0.00 0.00 78 1010.2
20260502120106 63 124 0.0 1.0 0.00 0.00 0.00 78 1010.3
20260502115616 63 119 0.0 1.0 0.00 0.00 0.00 78 1010.1
20260502115058 63 165 0.0 3.0 0.00 0.00 0.00 78 1010.2
20260502114608 63 169 1.0 3.0 0.00 0.00 0.00 78 1010.4
20260502114053 63 184 2.0 4.0 0.00 0.00 0.00 78 1010.4
20260502113603 63 173 1.0 4.0 0.00 0.00 0.00 78 1010.4
20260502113111 63 180 2.0 3.0 0.00 0.00 0.00 78 1010.4
20260502112555 64 174 1.0 3.0 0.00 0.00 0.00 77 1010.3
20260502112100 64 156 0.0 4.0 0.00 0.00 0.00 77 1010.3
20260502111610 64 169 2.0 4.0 0.00 0.00 0.00 76 1010.2
20260502111054 64 179 2.0 3.0 0.00 0.00 0.00 76 1010.2
20260502110602 64 191 1.0 3.0 0.00 0.00 0.00 75 1010.1
20260502110110 65 209 2.0 3.0 0.00 0.00 0.00 74 1010.1
20260502105553 65 199 2.0 3.0 0.00 0.00 0.00 73 1010.0
20260502105102 66 169 0.0 2.0 0.00 0.00 0.00 71 1009.9
20260502104553 66 169 0.0 2.0 0.00 0.00 0.00 70 1009.9
20260502104059 66 174 1.0 2.0 0.00 0.00 0.00 68 1009.8
20260502103630 66 177 0.0 2.0 0.00 0.00 0.00 67 1009.7
20260502103051 67 184 2.0 2.0 0.00 0.00 0.00 65 1009.8
20260502102601 67 158 1.0 2.0 0.00 0.00 0.00 62 1009.6
20260502102139 68 135 0.0 1.0 0.00 0.00 0.00 60 1009.9
20260502101555 68 135 0.0 1.0 0.00 0.00 0.00 59 1009.8
20260502101101 68 135 0.0 1.0 0.00 0.00 0.00 59 1009.8
20260502100634 68 135 0.0 1.0 0.00 0.00 0.00 57 1009.8
20260502091111 73 151 1.0 3.0 0.00 0.00 0.00 46 1009.4
20260502090554 73 134 1.0 4.0 0.00 0.00 0.00 46 1009.4
20260502080103 75 148 2.0 10.0 0.00 0.00 0.00 46 1009.6
20260502071110 76 160 3.0 9.0 0.00 0.00 0.00 48 1009.8
20260502070551 76 118 4.0 9.0 0.00 0.00 0.00 49 1010.0
20260502070121 76 154 4.0 10.0 0.00 0.00 0.00 48 1009.9
20260502065606 76 147 5.0 10.0 0.00 0.00 0.00 47 1010.0
20260502065114 77 165 4.0 10.0 0.00 0.00 0.00 47 1009.9
20260502064552 78 122 3.0 10.0 0.00 0.00 0.00 47 1009.8
20260502064102 78 126 4.0 8.0 0.00 0.00 0.00 46 1009.9
20260502063613 78 179 4.0 8.0 0.00 0.00 0.00 46 1009.9
20260502063053 78 126 2.0 8.0 0.00 0.00 0.00 47 1009.8
20260502062603 77 139 4.0 10.0 0.00 0.00 0.00 47 1009.8
20260502062113 77 125 5.0 10.0 0.00 0.00 0.00 46 1009.8